TAR899 DTTA-DTTJ

Flight info

Callsign TAR899
Flight time 0h 51m
Altitude 23000
Route GIBLI2A GIBLI A411 MON UA411 ELJEM A411 SFX UA411 JBA
Aircraft A20N/M-SDE2E3FGHIRWXY/LB1

Departure

Time 2026-04-18 09:01
Airport Tunis Carthage International Airport (DTTA)

Arrival

Time 2026-04-18 09:53
Airport Djerba Zarzis International Airport (DTTJ)
Time Latitude Longitude Altitude Speed Heading
2026-04-18 08:30 36.84253 10.22041 23 ft 0 kts 102°
2026-04-18 08:54 36.84255 10.22029 25 ft 2 kts 104°
2026-04-18 08:54 36.84258 10.22012 24 ft 2 kts 104°
2026-04-18 08:54 36.84262 10.21994 26 ft 2 kts 106°
2026-04-18 08:55 36.84267 10.21974 27 ft 2 kts 109°
2026-04-18 08:55 36.84273 10.21955 26 ft 2 kts 115°
2026-04-18 08:55 36.84281 10.21937 28 ft 2 kts 130°
2026-04-18 08:55 36.84294 10.21924 24 ft 2 kts 179°
2026-04-18 08:56 36.84302 10.21925 25 ft 0 kts 196°
2026-04-18 08:58 36.84298 10.21924 25 ft 3 kts 196°
2026-04-18 08:58 36.84249 10.21910 25 ft 12 kts 192°
2026-04-18 08:58 36.84138 10.21880 23 ft 20 kts 192°
2026-04-18 08:58 36.84048 10.21855 22 ft 8 kts 192°
2026-04-18 08:59 36.83976 10.21836 22 ft 13 kts 192°
2026-04-18 08:59 36.83905 10.21882 23 ft 14 kts 113°
2026-04-18 08:59 36.83879 10.22010 22 ft 15 kts 89°
2026-04-18 08:59 36.83897 10.22044 24 ft 0 kts 38°
2026-04-18 09:00 36.83882 10.22031 22 ft 1 kts 43°
2026-04-18 09:00 36.83878 10.22082 22 ft 11 kts 104°
2026-04-18 09:00 36.83875 10.22216 25 ft 20 kts 75°
2026-04-18 09:00 36.83971 10.22377 22 ft 27 kts 31°
2026-04-18 09:01 36.84383 10.22508 22 ft 106 kts 12°
2026-04-18 09:01 36.85340 10.22764 156 ft 164 kts 12°
2026-04-18 09:01 36.86560 10.23140 618 ft 199 kts 14°
2026-04-18 09:01 36.88020 10.23633 1138 ft 232 kts 15°
2026-04-18 09:02 36.89669 10.24206 1819 ft 258 kts 15°
2026-04-18 09:02 36.91464 10.24831 2618 ft 274 kts 13°
2026-04-18 09:02 36.93300 10.25258 4031 ft 262 kts
2026-04-18 09:02 36.95117 10.25335 5228 ft 265 kts 346°
2026-04-18 09:03 36.96858 10.24525 6267 ft 270 kts 337°
2026-04-18 09:03 36.98608 10.23622 7321 ft 274 kts 337°
2026-04-18 09:03 37.00377 10.22701 8354 ft 278 kts 336°
2026-04-18 09:03 37.02181 10.21752 9359 ft 283 kts 336°
2026-04-18 09:04 37.03907 10.20553 10335 ft 286 kts 318°
2026-04-18 09:04 37.05086 10.18591 11254 ft 290 kts 293°
2026-04-18 09:04 37.05493 10.16123 12173 ft 294 kts 268°
2026-04-18 09:04 37.05039 10.13624 13061 ft 298 kts 244°
2026-04-18 09:05 37.03770 10.11564 13923 ft 303 kts 219°
2026-04-18 09:05 37.01905 10.10335 14760 ft 308 kts 194°
2026-04-18 09:05 36.99765 10.10166 15572 ft 313 kts 171°
2026-04-18 09:05 36.97644 10.10857 16372 ft 317 kts 161°
2026-04-18 09:06 36.95544 10.11760 17168 ft 321 kts 161°
2026-04-18 09:06 36.93399 10.12593 17939 ft 325 kts 164°
2026-04-18 09:06 36.91200 10.13315 18680 ft 329 kts 166°
2026-04-18 09:06 36.88953 10.13959 19404 ft 333 kts 168°
2026-04-18 09:07 36.86674 10.14565 20107 ft 337 kts 168°
2026-04-18 09:07 36.84363 10.15161 20826 ft 340 kts 168°
2026-04-18 09:07 36.82032 10.15759 21500 ft 344 kts 168°
2026-04-18 09:07 36.79674 10.16364 22161 ft 347 kts 168°
2026-04-18 09:08 36.77317 10.16971 22449 ft 352 kts 168°
2026-04-18 09:08 36.74927 10.17588 22556 ft 350 kts 168°
2026-04-18 09:08 36.72506 10.18214 22668 ft 351 kts 168°
2026-04-18 09:08 36.70144 10.18824 22766 ft 352 kts 168°
2026-04-18 09:09 36.67736 10.19446 22863 ft 361 kts 168°
2026-04-18 09:09 36.65200 10.20100 22872 ft 383 kts 168°
2026-04-18 09:09 36.62539 10.20787 22870 ft 394 kts 168°
2026-04-18 09:09 36.59859 10.21479 22870 ft 393 kts 168°
2026-04-18 09:10 36.57180 10.22170 22870 ft 393 kts 168°
2026-04-18 09:10 36.54500 10.22860 22870 ft 394 kts 168°
2026-04-18 09:10 36.51814 10.23551 22870 ft 394 kts 168°
2026-04-18 09:10 36.49123 10.24244 22870 ft 393 kts 168°
2026-04-18 09:11 36.46442 10.24933 22869 ft 394 kts 168°
2026-04-18 09:11 36.43760 10.25622 22870 ft 393 kts 168°
2026-04-18 09:11 36.41085 10.26308 22870 ft 393 kts 168°
2026-04-18 09:11 36.38444 10.26986 22870 ft 392 kts 168°
2026-04-18 09:12 36.35772 10.27671 22869 ft 392 kts 168°
2026-04-18 09:12 36.33098 10.28356 22870 ft 393 kts 168°
2026-04-18 09:12 36.30424 10.29041 22870 ft 393 kts 168°
2026-04-18 09:12 36.27742 10.29727 22867 ft 393 kts 168°
2026-04-18 09:13 36.25059 10.30413 22870 ft 394 kts 168°
2026-04-18 09:13 36.22381 10.31097 22870 ft 393 kts 168°
2026-04-18 09:13 36.19697 10.31783 22868 ft 393 kts 168°
2026-04-18 09:13 36.17025 10.32465 22870 ft 393 kts 168°
2026-04-18 09:14 36.14350 10.33147 22867 ft 393 kts 168°
2026-04-18 09:14 36.11675 10.33829 22869 ft 392 kts 168°
2026-04-18 09:14 36.09000 10.34510 22869 ft 392 kts 168°
2026-04-18 09:14 36.06329 10.35190 22870 ft 392 kts 168°
2026-04-18 09:15 36.03658 10.35869 22870 ft 392 kts 168°
2026-04-18 09:15 36.01013 10.36541 22870 ft 392 kts 168°
2026-04-18 09:15 35.98344 10.37220 22870 ft 392 kts 168°
2026-04-18 09:15 35.95665 10.37900 22870 ft 392 kts 168°
2026-04-18 09:16 35.92991 10.38578 22870 ft 392 kts 168°
2026-04-18 09:16 35.90319 10.39255 22870 ft 392 kts 168°
2026-04-18 09:16 35.87646 10.39932 22870 ft 392 kts 168°
2026-04-18 09:16 35.84964 10.40611 22870 ft 393 kts 168°
2026-04-18 09:17 35.82280 10.41290 22868 ft 393 kts 168°
2026-04-18 09:17 35.79604 10.41967 22866 ft 393 kts 168°
2026-04-18 09:17 35.76925 10.42644 22866 ft 393 kts 168°
2026-04-18 09:17 35.74250 10.43319 22865 ft 392 kts 168°
2026-04-18 09:18 35.71575 10.43994 22870 ft 393 kts 168°
2026-04-18 09:18 35.68930 10.44661 22870 ft 393 kts 168°
2026-04-18 09:18 35.66250 10.45336 22868 ft 392 kts 168°
2026-04-18 09:18 35.63574 10.46009 22867 ft 392 kts 168°
2026-04-18 09:19 35.60897 10.46683 22870 ft 392 kts 168°
2026-04-18 09:19 35.58226 10.47355 22870 ft 392 kts 168°
2026-04-18 09:19 35.55546 10.48028 22832 ft 391 kts 168°
2026-04-18 09:19 35.52893 10.48695 22527 ft 388 kts 168°
2026-04-18 09:20 35.50250 10.49358 22068 ft 386 kts 168°
2026-04-18 09:20 35.47627 10.50016 21528 ft 383 kts 168°
2026-04-18 09:20 35.45023 10.50668 20981 ft 380 kts 168°
2026-04-18 09:20 35.42436 10.51316 20436 ft 377 kts 168°
2026-04-18 09:21 35.39907 10.51949 19902 ft 374 kts 168°
2026-04-18 09:21 35.37369 10.52584 19362 ft 371 kts 169°
2026-04-18 09:21 35.34838 10.53217 18827 ft 368 kts 169°
2026-04-18 09:21 35.32337 10.53841 18296 ft 365 kts 169°
2026-04-18 09:22 35.29850 10.54462 17763 ft 363 kts 169°
2026-04-18 09:22 35.27386 10.55077 17231 ft 360 kts 169°
2026-04-18 09:22 35.24941 10.55687 16715 ft 357 kts 169°
2026-04-18 09:22 35.22516 10.56291 16204 ft 354 kts 169°
2026-04-18 09:23 35.20110 10.56890 15696 ft 352 kts 169°
2026-04-18 09:23 35.17719 10.57485 15183 ft 349 kts 169°
2026-04-18 09:23 35.15376 10.58068 14689 ft 346 kts 169°
2026-04-18 09:23 35.13025 10.58652 14187 ft 344 kts 169°
2026-04-18 09:24 35.10686 10.59233 13685 ft 341 kts 169°
2026-04-18 09:24 35.08367 10.59809 13185 ft 339 kts 169°
2026-04-18 09:24 35.06072 10.60378 12690 ft 336 kts 169°
2026-04-18 09:24 35.03784 10.60946 12191 ft 334 kts 169°
2026-04-18 09:25 35.01515 10.61508 11692 ft 331 kts 169°
2026-04-18 09:25 34.99260 10.62067 11196 ft 329 kts 169°
2026-04-18 09:25 34.97020 10.62622 10703 ft 327 kts 169°
2026-04-18 09:25 34.94800 10.63171 10217 ft 324 kts 169°
2026-04-18 09:26 34.92596 10.63715 9735 ft 322 kts 169°
2026-04-18 09:26 34.90407 10.64256 9245 ft 320 kts 169°
2026-04-18 09:26 34.88238 10.64793 8763 ft 317 kts 169°
2026-04-18 09:26 34.86079 10.65327 8277 ft 315 kts 169°
2026-04-18 09:27 34.83937 10.65856 7783 ft 313 kts 169°
2026-04-18 09:27 34.81813 10.66380 7316 ft 311 kts 169°
2026-04-18 09:27 34.79721 10.66895 7141 ft 306 kts 169°
2026-04-18 09:27 34.77629 10.67409 7044 ft 312 kts 169°
2026-04-18 09:28 34.75506 10.67932 6945 ft 309 kts 169°
2026-04-18 09:28 34.73436 10.68442 6873 ft 296 kts 169°
2026-04-18 09:28 34.71468 10.68899 6870 ft 279 kts 173°
2026-04-18 09:28 34.69560 10.69096 6870 ft 277 kts 176°
2026-04-18 09:29 34.67626 10.69281 6866 ft 277 kts 176°
2026-04-18 09:29 34.65707 10.69471 6870 ft 276 kts 175°
2026-04-18 09:29 34.63795 10.69663 6866 ft 276 kts 175°
2026-04-18 09:29 34.61880 10.69854 6866 ft 276 kts 175°
2026-04-18 09:30 34.59963 10.70045 6868 ft 276 kts 175°
2026-04-18 09:30 34.58048 10.70236 6868 ft 276 kts 175°
2026-04-18 09:30 34.56128 10.70426 6870 ft 276 kts 175°
2026-04-18 09:30 34.54215 10.70616 6866 ft 276 kts 175°
2026-04-18 09:31 34.52297 10.70806 6867 ft 276 kts 175°
2026-04-18 09:31 34.50404 10.70994 6869 ft 276 kts 175°
2026-04-18 09:31 34.48488 10.71184 6869 ft 276 kts 175°
2026-04-18 09:31 34.46568 10.71374 6868 ft 276 kts 175°
2026-04-18 09:32 34.45301 10.71499 6874 ft 276 kts 175°
2026-04-18 09:32 34.42733 10.71753 6866 ft 276 kts 175°
2026-04-18 09:32 34.40811 10.71944 6869 ft 276 kts 175°
2026-04-18 09:32 34.38892 10.72134 6870 ft 276 kts 175°
2026-04-18 09:33 34.37623 10.72259 6869 ft 276 kts 175°
2026-04-18 09:33 34.35707 10.72449 6874 ft 276 kts 175°
2026-04-18 09:33 34.33793 10.72638 6874 ft 276 kts 175°
2026-04-18 09:33 34.31248 10.72889 6870 ft 276 kts 175°
2026-04-18 09:34 34.29954 10.73017 6875 ft 276 kts 175°
2026-04-18 09:34 34.28062 10.73203 6866 ft 276 kts 175°
2026-04-18 09:34 34.26151 10.73392 6866 ft 276 kts 175°
2026-04-18 09:34 34.24250 10.73723 6867 ft 276 kts 161°
2026-04-18 09:35 34.22527 10.74753 6866 ft 277 kts 150°
2026-04-18 09:35 34.20868 10.75952 6872 ft 277 kts 149°
2026-04-18 09:35 34.19222 10.77166 6865 ft 277 kts 149°
2026-04-18 09:35 34.17567 10.78362 6865 ft 277 kts 149°
2026-04-18 09:36 34.15905 10.79538 6871 ft 277 kts 150°
2026-04-18 09:36 34.14232 10.80703 6870 ft 277 kts 150°
2026-04-18 09:36 34.12557 10.81862 6868 ft 277 kts 150°
2026-04-18 09:36 34.10884 10.83015 6872 ft 277 kts 150°
2026-04-18 09:37 34.09210 10.84169 6831 ft 276 kts 150°
2026-04-18 09:37 34.07551 10.85311 6570 ft 274 kts 150°
2026-04-18 09:37 34.05895 10.86451 6312 ft 275 kts 150°
2026-04-18 09:37 34.04257 10.87578 6061 ft 273 kts 150°
2026-04-18 09:38 34.02606 10.88715 5817 ft 273 kts 150°
2026-04-18 09:38 34.00958 10.89848 5563 ft 272 kts 150°
2026-04-18 09:38 33.99321 10.90974 5311 ft 271 kts 150°
2026-04-18 09:38 33.97688 10.92096 5061 ft 270 kts 150°
2026-04-18 09:39 33.96060 10.93215 4815 ft 269 kts 150°
2026-04-18 09:39 33.94436 10.94330 4564 ft 268 kts 150°
2026-04-18 09:39 33.92809 10.95431 4224 ft 267 kts 155°
2026-04-18 09:39 33.91027 10.95915 3871 ft 263 kts 182°
2026-04-18 09:40 33.89282 10.95332 3526 ft 263 kts 211°
2026-04-18 09:40 33.87983 10.93832 3179 ft 261 kts 239°
2026-04-18 09:40 33.87443 10.91783 2826 ft 258 kts 268°
2026-04-18 09:40 33.87490 10.89634 2552 ft 257 kts 272°
2026-04-18 09:41 33.87565 10.87473 2388 ft 263 kts 273°
2026-04-18 09:41 33.87706 10.85232 1864 ft 272 kts 275°
2026-04-18 09:41 33.87837 10.82968 1592 ft 266 kts 271°
2026-04-18 09:41 33.87821 10.80854 1902 ft 237 kts 269°
2026-04-18 09:42 33.87784 10.79024 2256 ft 208 kts 269°
2026-04-18 09:42 33.87762 10.77265 2372 ft 213 kts 270°
2026-04-18 09:42 33.87767 10.75498 2372 ft 210 kts 271°
2026-04-18 09:42 33.88162 10.73843 2370 ft 209 kts 305°
2026-04-18 09:43 33.89304 10.72769 2510 ft 215 kts 342°
2026-04-18 09:43 33.90792 10.72670 2726 ft 214 kts 15°
2026-04-18 09:43 33.92176 10.73310 2822 ft 214 kts 23°
2026-04-18 09:43 33.93545 10.74020 2868 ft 214 kts 23°
2026-04-18 09:44 33.94897 10.74775 2861 ft 214 kts 34°
2026-04-18 09:44 33.95840 10.76135 2870 ft 215 kts 69°
2026-04-18 09:44 33.96143 10.77828 2867 ft 216 kts 82°
2026-04-18 09:44 33.96355 10.79606 2869 ft 215 kts 82°
2026-04-18 09:45 33.96565 10.81397 2869 ft 215 kts 82°
2026-04-18 09:45 33.96771 10.83162 2869 ft 215 kts 82°
2026-04-18 09:45 33.96977 10.84945 2869 ft 215 kts 83°
2026-04-18 09:45 33.97163 10.86739 2869 ft 215 kts 83°
2026-04-18 09:46 33.97344 10.88529 2869 ft 215 kts 83°
2026-04-18 09:46 33.97525 10.90323 2869 ft 215 kts 83°
2026-04-18 09:46 33.97706 10.92113 2869 ft 215 kts 83°
2026-04-18 09:46 33.97886 10.93905 2869 ft 215 kts 83°
2026-04-18 09:47 33.97778 10.95676 2869 ft 213 kts 112°
2026-04-18 09:47 33.96885 10.97060 2856 ft 211 kts 147°
2026-04-18 09:47 33.95528 10.97635 2654 ft 209 kts 171°
2026-04-18 09:47 33.94108 10.97893 2524 ft 202 kts 173°
2026-04-18 09:48 33.92736 10.98130 2430 ft 197 kts 172°
2026-04-18 09:48 33.91396 10.98372 2372 ft 196 kts 172°
2026-04-18 09:48 33.90042 10.98628 2370 ft 197 kts 172°
2026-04-18 09:48 33.88693 10.98556 2371 ft 196 kts 201°
2026-04-18 09:49 33.87661 10.97538 2371 ft 195 kts 239°
2026-04-18 09:49 33.87360 10.95974 2376 ft 195 kts 271°
2026-04-18 09:49 33.87409 10.94340 2366 ft 190 kts 273°
2026-04-18 09:49 33.87466 10.92791 2371 ft 185 kts 272°
2026-04-18 09:50 33.87510 10.91325 2371 ft 167 kts 272°
2026-04-18 09:50 33.87539 10.89975 2365 ft 153 kts 271°
2026-04-18 09:50 33.87580 10.88717 2342 ft 151 kts 275°
2026-04-18 09:50 33.87679 10.87464 2226 ft 151 kts 275°
2026-04-18 09:51 33.87726 10.86208 1925 ft 150 kts 270°
2026-04-18 09:51 33.87717 10.84959 1535 ft 149 kts 269°
2026-04-18 09:51 33.87686 10.83733 1204 ft 144 kts 268°
2026-04-18 09:51 33.87656 10.82516 846 ft 146 kts 269°
2026-04-18 09:52 33.87628 10.81316 517 ft 144 kts 269°
2026-04-18 09:52 33.87608 10.80106 242 ft 145 kts 267°
2026-04-18 09:52 33.87578 10.78897 29 ft 139 kts 269°
2026-04-18 09:52 33.87553 10.78010 24 ft 64 kts 268°
2026-04-18 09:53 33.87525 10.77746 26 ft 4 kts 210°
2026-04-18 09:53 33.87432 10.77705 24 ft 15 kts 216°
2026-04-18 09:53 33.87404 10.77619 24 ft 13 kts 278°
2026-04-18 09:53 33.87405 10.77467 22 ft 22 kts 266°
2026-04-18 09:54 33.87391 10.77432 23 ft 7 kts 250°
2026-04-18 09:54 33.87343 10.77361 22 ft 9 kts 187°
2026-04-18 09:54 33.87312 10.77392 22 ft 8 kts 130°
2026-04-18 09:54 33.87280 10.77434 22 ft 0 kts 134°